Location: アルンシュタイン
(50.0000°N, 10.0000°E)
Time: 17:56:04
(UTC+02:00)

SR - All Passes

Search period start: 11 September 2024 00:00
Search period end: 21 September 2024 00:00
Orbit: 579 x 855 km, 66.7° (Epoch: 10 September)

Date Brightness Start Highest point End Pass type
(mag) Time Alt. Az. Time Alt. Az. Time Alt. Az.
11 Sep - 01:02:08 10° NW 01:06:10 30° WSW 01:10:27 10° S visible
11 Sep - 15:34:29 10° SSW 15:38:38 59° ESE 15:42:50 10° NE daylight
11 Sep - 17:17:15 10° W 17:20:46 25° NW 17:24:20 10° NNE daylight
11 Sep - 20:47:02 10° N 20:48:06 11° NNE 20:49:10 10° NNE visible
11 Sep - 22:27:29 10° NNW 22:31:23 28° NE 22:35:29 10° E visible
12 Sep - 00:08:57 10° NW 00:13:28 60° WSW 00:18:20 10° SSE visible
12 Sep - 14:42:22 10° S 14:45:59 27° ESE 14:49:37 10° NE daylight
12 Sep - 16:23:34 10° WSW 16:27:36 42° NW 16:31:42 10° NNE daylight
12 Sep - 18:08:34 10° NW 18:10:33 13° NNW 18:12:34 10° N daylight
12 Sep - 21:34:57 10° NNW 21:38:05 18° NNE 21:41:20 10° ENE visible
12 Sep - 23:16:03 10° NNW 23:20:37 72° NE 23:25:32 10° SE visible
13 Sep - 00:58:42 10° WNW 01:02:01 19° WSW 01:05:30 10° SSW visible
13 Sep - 13:51:34 10° SE 13:53:30 13° ESE 13:55:28 10° E daylight
13 Sep - 15:30:23 10° SW 15:34:37 84° NW 15:38:55 10° NE daylight
13 Sep - 17:14:05 10° WNW 17:17:05 18° NNW 17:20:09 10° NNE daylight
13 Sep - 20:42:31 10° N 20:44:35 13° NNE 20:46:44 10° NE visible
13 Sep - 22:23:19 10° NNW 22:27:35 39° NE 22:32:09 10° ESE visible
14 Sep - 00:05:08 10° NW 00:09:24 38° WSW 00:14:00 10° S visible
14 Sep - 14:37:47 10° SSW 14:41:50 45° ESE 14:45:54 10° NE daylight
14 Sep - 16:20:03 10° WSW 16:23:46 29° NW 16:27:34 10° NNE daylight
14 Sep - 18:05:57 10° NNW 18:07:02 11° NNW 18:08:07 10° N daylight
14 Sep - 19:50:43 10° N 19:50:58 10° NNE 19:51:13 10° NNE daylight
14 Sep - 21:30:42 10° NNW 21:34:23 24° NE 21:38:16 10° E visible
14 Sep - 23:12:02 10° NW 23:16:37 75° WSW 23:21:35 10° SSE visible
15 Sep - 00:55:56 10° W 00:57:45 12° WSW 00:59:36 10° SW visible
15 Sep - 13:45:58 10° SSE 13:49:12 21° ESE 13:52:27 10° ENE daylight
15 Sep - 15:26:30 10° SW 15:30:38 53° NW 15:34:52 10° NNE daylight
15 Sep - 17:11:03 10° WNW 17:13:26 14° NNW 17:15:52 10° N daylight
15 Sep - 20:38:09 10° NNW 20:40:59 16° NNE 20:43:55 10° ENE visible
15 Sep - 22:19:10 10° NNW 22:23:41 58° NE 22:28:32 10° SE visible
16 Sep - 00:01:27 10° WNW 00:05:13 24° WSW 00:09:13 10° SSW visible
16 Sep - 14:33:28 10° SSW 14:37:41 76° ESE 14:41:58 10° NE daylight
16 Sep - 16:16:41 10° W 16:19:58 21° NW 16:23:20 10° NNE daylight
16 Sep - 19:45:44 10° N 19:47:25 12° NNE 19:49:07 10° NE daylight
16 Sep - 21:26:26 10° NNW 21:30:34 33° NE 21:34:57 10° ESE visible
16 Sep - 23:08:03 10° NW 23:12:31 48° WSW 23:17:18 10° SSE visible
17 Sep - 13:41:04 10° S 13:44:54 35° ESE 13:48:48 10° NE daylight
17 Sep - 15:22:47 10° WSW 15:26:41 35° NW 15:30:40 10° NNE daylight
17 Sep - 17:08:10 10° NW 17:09:48 12° NNW 17:11:27 10° N daylight
17 Sep - 20:33:48 10° NNW 20:37:15 21° NNE 20:40:53 10° E visible
17 Sep - 22:15:02 10° NW 22:19:38 87° NE 22:24:39 10° SE visible
17 Sep - 23:58:06 10° WNW 00:00:54 16° WSW 00:03:50 10° SW visible
18 Sep - 12:49:37 10° SSE 12:52:19 17° ESE 12:55:01 10° ENE daylight
18 Sep - 14:29:22 10° SW 14:33:35 67° NW 14:37:52 10° NNE daylight
18 Sep - 16:13:28 10° WNW 16:16:12 16° NNW 16:19:00 10° NNE daylight
18 Sep - 19:41:15 10° N 19:43:45 14° NNE 19:46:20 10° ENE daylight
18 Sep - 21:22:10 10° NNW 21:26:36 47° NE 21:31:22 10° ESE visible
18 Sep - 23:04:11 10° NW 23:08:17 31° WSW 23:12:41 10° S visible
19 Sep - 13:36:30 10° SSW 13:40:39 58° ESE 13:44:52 10° NE daylight
19 Sep - 15:19:13 10° W 15:22:46 25° NW 15:26:23 10° NNE daylight
19 Sep - 17:05:40 10° NNW 17:06:09 10° NNW 17:06:40 10° N daylight
19 Sep - 18:48:52 10° N 18:50:06 11° NNE 18:51:20 10° NNE daylight
19 Sep - 20:29:26 10° NNW 20:33:23 28° NE 20:37:35 10° E visible
19 Sep - 22:10:54 10° NW 22:15:29 61° WSW 22:20:27 10° SSE visible
20 Sep - 12:44:20 10° S 12:47:55 27° ESE 12:51:31 10° NE daylight
20 Sep - 14:25:27 10° WSW 14:29:30 43° NW 14:33:38 10° NNE daylight
20 Sep - 16:10:22 10° NW 16:12:27 13° NNW 16:14:33 10° N daylight
20 Sep - 19:36:47 10° NNW 19:39:59 18° NNE 19:43:19 10° ENE daylight
20 Sep - 21:17:54 10° NNW 21:22:31 71° NE 21:27:31 10° SE visible
20 Sep - 23:00:30 10° WNW 23:03:56 20° WSW 23:07:34 10° SSW visible
